Location: Newark
(54.3386°S, 169.8415°W)
Time: 01:02:11
(UTC+00:00)

Altair - Visible Passes

Search period start: 17 October 2019 00:00
Search period end: 27 October 2019 00:00
Orbit: 1501 x 1683 km, 47.2° (Epoch: 16 October)

Date Brightness Start Highest point End Pass type
(mag) Time Alt. Az. Time Alt. Az. Time Alt. Az.
17 Oct 8.3 10:51:32 29° NE 10:51:32 29° NE 10:57:49 10° E visible
17 Oct 7.6 12:49:30 35° NW 12:53:21 52° NNE 13:02:16 10° E visible
17 Oct 7.7 14:48:02 10° W 14:57:10 55° N 15:06:05 10° ENE visible
18 Oct 8.4 10:27:04 26° ENE 10:27:04 26° ENE 10:32:37 10° E visible
18 Oct 7.6 12:25:01 38° NNW 12:28:15 51° NNE 12:37:09 10° E visible
18 Oct 7.6 14:22:58 10° W 14:32:04 56° N 14:41:01 10° ENE visible
19 Oct 8.5 10:02:30 24° ENE 10:02:30 24° ENE 10:07:25 10° E visible
19 Oct 7.6 12:00:27 40° NNW 12:03:09 50° NNE 12:12:02 10° E visible
19 Oct 7.6 13:58:23 12° W 14:06:58 56° N 14:15:56 10° ENE visible
20 Oct 8.6 09:37:47 22° ENE 09:37:47 22° ENE 09:42:12 10° E visible
20 Oct 7.6 11:35:43 41° NNW 11:38:04 48° NNE 11:46:55 10° E visible
20 Oct 7.5 13:33:39 14° WNW 13:41:52 57° N 13:50:52 10° ENE visible
21 Oct 8.6 09:12:50 20° ENE 09:12:50 20° ENE 09:16:57 10° E visible
21 Oct 7.6 11:10:44 41° NNW 11:12:58 47° NNE 11:21:48 10° E visible
21 Oct 7.5 13:08:39 15° WNW 13:16:45 57° N 13:25:47 10° ENE visible
21 Oct 7.9 15:11:44 10° W 15:20:23 42° NNW 15:28:48 10° NE visible
22 Oct 8.6 08:47:24 20° ENE 08:47:24 20° ENE 08:51:41 10° E visible
22 Oct 7.7 10:45:13 38° NNW 10:47:53 45° NNE 10:56:41 10° E visible
22 Oct 7.5 12:43:03 13° WNW 12:51:39 57° N 13:00:42 10° ENE visible
22 Oct 7.8 14:46:34 10° W 14:55:19 43° NNW 15:03:50 10° NE visible
23 Oct 8.4 08:13:17 10° N 08:19:54 21° NE 08:26:23 10° E visible
23 Oct 7.7 10:13:43 10° NW 10:22:47 44° NNE 10:31:34 10° E visible
23 Oct 7.5 12:17:07 10° WNW 12:26:32 57° N 12:35:37 10° ENE visible
23 Oct 7.7 14:21:23 10° W 14:30:15 45° NNW 14:38:51 10° NE visible
24 Oct 8.5 07:48:37 10° N 07:54:54 19° NE 08:01:03 10° E visible
24 Oct 7.7 09:48:41 10° NW 09:57:42 42° NNE 10:06:26 10° E visible
24 Oct 7.5 11:51:58 10° WNW 12:01:25 57° N 12:10:31 10° ENE visible
24 Oct 7.7 13:56:12 10° W 14:05:10 47° NNW 14:13:51 10° NE visible
25 Oct 8.6 07:24:01 10° NNE 07:29:54 18° NE 07:35:39 10° E visible
25 Oct 7.8 09:23:39 10° NW 09:32:37 41° NNE 09:41:18 10° E visible
25 Oct 7.5 11:26:49 10° WNW 11:36:18 57° N 11:45:25 10° E visible
25 Oct 7.6 13:31:02 10° W 13:40:05 48° NNW 13:48:51 10° NE visible
26 Oct 8.7 06:59:30 10° NNE 07:04:54 16° NE 07:10:13 10° E visible
26 Oct 7.8 08:58:39 10° NW 09:07:32 39° NNE 09:16:09 10° E visible
26 Oct 7.5 11:01:40 10° WNW 11:11:11 57° N 11:20:19 10° E visible
26 Oct 7.6 13:05:51 10° W 13:15:00 50° NNW 13:23:50 10° NE visible
